Terminal Aerodrome Forecast
Issued by NWS

Home | Current Version | Previous Version | Text Only | Print | Product List | Glossary On
Versions: 1 2 3 4 5 6 7 8 9 10 11 12
000
FTUS46 KSTO 221700
TAFRBL
TAF
KRBL 221732Z 2218/2318 VRB05KT P6SM FEW250
     FM222200 16007KT P6SM SCT200=

USA.gov is the U.S. government's official web portal to all federal, state and local government web resources and services.